^^
Station Historical Data
 
Daily Summary for July 23, 2018 Units:  Metric    English   Both
« Previous Day
Next Day »
Daily Weekly Monthly Yearly Custom
  Current: High: Low: Average:
Temperature: -2 °C -17.8 °C -8.9 °C -5.7 °C
Dew Point: -6.7 °C -17.8 °C -9.6 °C -8.4 °C
Humidity: 60% Humidity% 49% 76%
Wind Speed: 13.5km/h 0km/h 0km/h 3.5km/h
Wind Gust: 9.7km/h 0km/h - -
WindENE - - SE
Pressure: 34364.5 hPa 0 hPa 34361.1 hPa -
Precipitation: 0 mm      
Historical Graphs
 
 
Tabular Data for July 23, 2018
Time Temperature Dew Point Pressure Wind Wind Speed Wind Gust Humidity Rainfall Rate (Hourly) solar Conditions
-17.8 °C -17.8 °C 0 hPa Calm     Humidity% 0 mm SolarRadiationWatts/m^2 W/m2 Conditions
00:03 -7.7 °C -9.4 °C 34361.1 hPa Calm     82% 0 mm 0.00 W/m2 CLR
00:07 -7.7 °C -9.4 °C 34364.5 hPa Calm     83% 0 mm 0.00 W/m2 CLR
00:14 -7.8 °C -9.4 °C 34367.9 hPa Calm     83% 0 mm 0.00 W/m2 CLR
00:19 -7.8 °C -9.4 °C 34367.9 hPa Calm     83% 0 mm 0.00 W/m2 CLR
00:24 -7.8 °C -9.5 °C 34367.9 hPa Calm     83% 0 mm 0.00 W/m2 CLR
00:29 -7.9 °C -9.5 °C 34364.5 hPa Calm     83% 0 mm 0.00 W/m2 CLR
00:34 -7.9 °C -9.6 °C 34364.5 hPa Calm     83% 0 mm 0.00 W/m2 CLR
00:38 -7.9 °C -9.4 °C 34364.5 hPa Calm     84% 0 mm 0.00 W/m2 CLR
00:44 -7.9 °C -9.4 °C 34367.9 hPa Calm     84% 0 mm 0.00 W/m2 CLR
00:48 -7.9 °C -9.3 °C 34367.9 hPa Calm     85% 0 mm 0.00 W/m2 CLR
00:54 -7.9 °C -9.3 °C 34364.5 hPa Calm     85% 0 mm 0.00 W/m2 CLR
00:59 -7.9 °C -9.4 °C 34364.5 hPa Calm     85% 0 mm 0.00 W/m2 CLR
01:04 -8 °C -9.4 °C 34367.9 hPa Calm     85% 0 mm 0.00 W/m2 CLR
01:08 -8 °C -9.3 °C 34367.9 hPa Calm     86% 0 mm 0.00 W/m2 CLR
01:13 -8 °C -9.3 °C 34367.9 hPa Calm     86% 0 mm 0.00 W/m2 CLR
01:18 -8.1 °C -9.4 °C 34367.9 hPa Calm     86% 0 mm 0.00 W/m2 CLR
01:23 -8.1 °C -9.3 °C 34367.9 hPa Calm     87% 0 mm 0.00 W/m2 CLR
01:28 -8.1 °C -9.3 °C 34367.9 hPa Calm     87% 0 mm 0.00 W/m2 CLR
01:33 -8.2 °C -9.4 °C 34371.3 hPa Calm     87% 0 mm 0.00 W/m2 CLR
01:38 -8.2 °C -9.4 °C 34371.3 hPa Calm     87% 0 mm 0.00 W/m2 CLR
01:43 -8.2 °C -9.4 °C 34371.3 hPa Calm     87% 0 mm 0.00 W/m2 CLR
01:48 -8.3 °C -9.4 °C 34371.3 hPa Calm     88% 0 mm 0.00 W/m2 CLR
01:53 -8.3 °C -9.4 °C 34371.3 hPa Calm     88% 0 mm 0.00 W/m2 CLR
01:58 -8.3 °C -9.4 °C 34367.9 hPa Calm     88% 0 mm 0.00 W/m2 CLR
02:04 -8.3 °C -9.3 °C 34367.9 hPa Calm     89% 0 mm 0.00 W/m2 CLR
02:09 -8.3 °C -9.3 °C 34367.9 hPa Calm     89% 0 mm 0.00 W/m2 CLR
02:13 -8.3 °C -9.3 °C 34367.9 hPa Calm     89% 0 mm 0.00 W/m2 CLR
02:19 -8.3 °C -9.3 °C 34364.5 hPa Calm     90% 0 mm 0.00 W/m2 CLR
02:23 -8.4 °C -9.3 °C 34364.5 hPa Calm     90% 0 mm 0.00 W/m2 CLR
02:29 -8.4 °C -9.3 °C 34364.5 hPa Calm     90% 0 mm 0.00 W/m2 CLR
02:34 -8.4 °C -9.3 °C 34367.9 hPa Calm     90% 0 mm 0.00 W/m2 CLR
02:38 -8.4 °C -9.4 °C 34367.9 hPa Calm     90% 0 mm 0.00 W/m2 CLR
02:44 -8.5 °C -9.4 °C 34367.9 hPa Calm     90% 0 mm 0.00 W/m2 CLR
02:49 -8.5 °C -9.4 °C 34364.5 hPa Calm     90% 0 mm 0.00 W/m2 CLR
02:53 -8.5 °C -9.4 °C 34364.5 hPa Calm     90% 0 mm 0.00 W/m2 CLR
02:59 -8.6 °C -9.5 °C 34364.5 hPa Calm     90% 0 mm 0.00 W/m2 CLR
03:04 -8.6 °C -9.4 °C 34364.5 hPa Calm     91% 0 mm 0.00 W/m2 CLR
03:09 -8.5 °C -9.3 °C 34364.5 hPa Calm     91% 0 mm 0.00 W/m2 CLR
03:14 -8.5 °C -9.3 °C 34364.5 hPa Calm     91% 0 mm 0.00 W/m2 CLR
03:19 -8.5 °C -9.3 °C 34364.5 hPa Calm     91% 0 mm 0.00 W/m2 CLR
03:24 -8.5 °C -9.3 °C 34361.1 hPa Calm     91% 0 mm 0.00 W/m2 CLR
03:28 -8.6 °C -9.4 °C 34361.1 hPa Calm     91% 0 mm 0.00 W/m2 CLR
03:33 -8.6 °C -9.4 °C 34364.5 hPa Calm     91% 0 mm 0.00 W/m2 CLR
03:38 -8.7 °C -9.5 °C 34361.1 hPa Calm     91% 0 mm 0.00 W/m2 CLR
03:43 -8.7 °C -9.5 °C 34364.5 hPa Calm     91% 0 mm 0.00 W/m2 CLR
03:48 -8.7 °C -9.4 °C 34364.5 hPa Calm     92% 0 mm 0.00 W/m2 CLR
03:53 -8.7 °C -9.5 °C 34364.5 hPa Calm     91% 0 mm 0.00 W/m2 CLR
03:59 -8.7 °C -9.4 °C 34364.5 hPa Calm     92% 0 mm 0.00 W/m2 CLR
04:04 -8.7 °C -9.4 °C 34364.5 hPa Calm     92% 0 mm 0.00 W/m2 CLR
04:08 -8.7 °C -9.4 °C 34364.5 hPa Calm     92% 0 mm 0.00 W/m2 CLR
04:14 -8.7 °C -9.4 °C 34364.5 hPa Calm     92% 0 mm 0.00 W/m2 CLR
04:18 -8.7 °C -9.4 °C 34364.5 hPa Calm     92% 0 mm 0.00 W/m2 CLR
04:24 -8.7 °C -9.4 °C 34367.9 hPa Calm     92% 0 mm 0.00 W/m2 CLR
04:28 -8.7 °C -9.4 °C 34367.9 hPa Calm     92% 0 mm 0.00 W/m2 CLR
04:34 -8.8 °C -9.5 °C 34367.9 hPa Calm     92% 0 mm 0.00 W/m2 CLR
04:38 -8.8 °C -9.5 °C 34367.9 hPa Calm     92% 0 mm 0.00 W/m2 CLR
04:44 -8.8 °C -9.4 °C 34367.9 hPa Calm     93% 0 mm 0.00 W/m2 CLR
04:48 -8.7 °C -9.3 °C 34367.9 hPa Calm     93% 0 mm 0.00 W/m2 CLR
04:54 -8.7 °C -9.3 °C 34367.9 hPa Calm     93% 0 mm 0.00 W/m2 CLR
04:58 -8.8 °C -9.4 °C 34367.9 hPa Calm     93% 0 mm 0.00 W/m2 CLR
05:03 -8.8 °C -9.4 °C 34364.5 hPa Calm     93% 0 mm 0.00 W/m2 CLR
05:09 -8.8 °C -9.4 °C 34367.9 hPa Calm     93% 0 mm 0.00 W/m2 CLR
05:14 -8.8 °C -9.4 °C 34364.5 hPa Calm     93% 0 mm 0.00 W/m2 CLR
05:19 -8.8 °C -9.4 °C 34364.5 hPa Calm     93% 0 mm 0.00 W/m2 OVC
05:23 -8.8 °C -9.4 °C 34364.5 hPa Calm     93% 0 mm 0.00 W/m2 OVC
05:29 -8.8 °C -9.5 °C 34361.1 hPa Calm     93% 0 mm 0.00 W/m2 OVC
05:33 -8.8 °C -9.5 °C 34364.5 hPa Calm     93% 0 mm 0.00 W/m2 OVC
05:39 -8.9 °C -9.5 °C 34364.5 hPa Calm     93% 0 mm 0.00 W/m2 OVC
05:44 -8.8 °C -9.4 °C 34367.9 hPa Calm     94% 0 mm 0.00 W/m2 OVC
05:49 -8.8 °C -9.3 °C 34367.9 hPa Calm     94% 0 mm 0.00 W/m2 OVC
05:53 -8.8 °C -9.3 °C 34367.9 hPa Calm     94% 0 mm 5.00 W/m2 BKN
05:58 -8.8 °C -9.3 °C 34367.9 hPa Calm     94% 0 mm 5.00 W/m2 BKN
06:03 -8.8 °C -9.3 °C 34367.9 hPa Calm     94% 0 mm 7.00 W/m2 BKN
06:09 -8.8 °C -9.3 °C 34371.3 hPa Calm     94% 0 mm 9.00 W/m2 BKN
06:13 -8.8 °C -9.3 °C 34374.7 hPa Calm     94% 0 mm 11.00 W/m2 BKN
06:18 -8.8 °C -9.3 °C 34371.3 hPa Calm     94% 0 mm 14.00 W/m2 BKN
06:23 -8.7 °C -9.1 °C 34371.3 hPa Calm     95% 0 mm 18.00 W/m2 BKN
06:28 -8.7 °C -9.1 °C 34371.3 hPa Calm     95% 0 mm 21.00 W/m2 BKN
06:33 -8.5 °C -8.9 °C 34371.3 hPa Calm     95% 0 mm 26.00 W/m2 BKN
06:38 -8.4 °C -8.9 °C 34374.7 hPa Calm     95% 0 mm 37.00 W/m2 SCT
06:43 -8.4 °C -8.8 °C 34374.7 hPa Calm     95% 0 mm 46.00 W/m2 SCT
06:49 -8.2 °C -8.7 °C 34374.7 hPa Calm     95% 0 mm 54.00 W/m2 SCT
06:53 -8.2 °C -8.6 °C 34378.1 hPa Calm     95% 0 mm 65.00 W/m2 SCT
06:59 -8.1 °C -8.6 °C 34378.1 hPa Calm     94% 0 mm 76.00 W/m2 SCT
07:03 -7.9 °C -8.5 °C 34378.1 hPa Calm     94% 0 mm 84.00 W/m2 SCT
07:08 -7.8 °C -8.4 °C 34374.7 hPa Calm     94% 0 mm 97.00 W/m2 SCT
07:14 -7.7 °C -8.3 °C 34374.7 hPa Calm     93% 0 mm 109.00 W/m2 SCT
07:18 -7.6 °C -8.3 °C 34374.7 hPa Calm     92% 0 mm 120.00 W/m2 FEW
07:24 -7.3 °C -8.1 °C 34378.1 hPa Calm     92% 0 mm 132.00 W/m2 FEW
07:28 -7.2 °C -8 °C 34378.1 hPa Calm     91% 0 mm 142.00 W/m2 FEW
07:33 -7.1 °C -8.1 °C 34378.1 hPa Calm     89% 0 mm 155.00 W/m2 FEW
07:39 -6.8 °C -8 °C 34378.1 hPa Calm     87% 0 mm 167.00 W/m2 FEW
07:44 -6.6 °C -7.9 °C 34378.1 hPa Calm     86% 0 mm 178.00 W/m2 FEW
07:49 -6.4 °C -8 °C 34378.1 hPa Calm     84% 0 mm 188.00 W/m2 CLR
07:54 -6.3 °C -7.9 °C 34378.1 hPa Calm     83% 0 mm 202.00 W/m2 CLR
07:59 -6.1 °C -7.9 °C 34381.4 hPa Calm     82% 0 mm 216.00 W/m2 CLR
08:04 -5.9 °C -7.9 °C 34381.4 hPa Calm     80% 0 mm 227.00 W/m2 CLR
08:09 -5.7 °C -7.8 °C 34378.1 hPa Calm     79% 0 mm 237.00 W/m2 CLR
08:14 -5.6 °C -7.9 °C 34381.4 hPa Calm     77% 0 mm 251.00 W/m2 CLR
08:18 -5.4 °C -7.9 °C 34381.4 hPa Calm     76% 0 mm 265.00 W/m2 CLR
08:23 -5.3 °C -7.9 °C 34381.4 hPa Calm     75% 0 mm 272.00 W/m2 CLR
08:28 -5.1 °C -7.8 °C 34378.1 hPa Calm     74% 0 mm 285.00 W/m2 CLR
08:33 -4.8 °C -7.7 °C 34378.1 hPa Calm     73% 0 mm 301.00 W/m2 CLR
08:38 -4.6 °C -7.7 °C 34381.4 hPa Calm     71% 0 mm 311.00 W/m2 CLR
08:43 -4.4 °C -7.7 °C 34381.4 hPa Calm     70% 0 mm 318.00 W/m2 CLR
08:48 -4.3 °C -7.6 °C 34381.4 hPa Calm     69% 0 mm 336.00 W/m2 CLR
08:53 -4.3 °C -8.1 °C 34384.8 hPa Calm     66% 0 mm 346.00 W/m2 CLR
08:58 -4.6 °C -8.1 °C 34384.8 hPa Calm     68% 0 mm 355.00 W/m2 CLR
09:03 -4.6 °C -8.1 °C 34384.8 hPa Calm     68% 0 mm 359.00 W/m2 CLR
09:08 -4.8 °C -8.1 °C 34384.8 hPa South 6 km/h 1.3 km/h 69% 0 mm 378.00 W/m2 CLR
09:14 -5 °C -8.2 °C 34381.4 hPa Calm     70% 0 mm 385.00 W/m2 CLR
09:18 -4.9 °C -7.8 °C 34381.4 hPa East 6 km/h 0.3 km/h 73% 0 mm 399.00 W/m2 CLR
09:23 -4.8 °C -7.8 °C 34381.4 hPa East 2.6 km/h 0.5 km/h 72% 0 mm 408.00 W/m2 CLR
09:28 -4.8 °C -7.9 °C 34381.4 hPa SSE 6 km/h 3.1 km/h 71% 0 mm 425.00 W/m2 CLR
09:34 -4.9 °C -7.9 °C 34381.4 hPa SE 6 km/h 0.5 km/h 72% 0 mm 401.00 W/m2 CLR
09:38 -4.9 °C -7.8 °C 34384.8 hPa South 6 km/h 2.6 km/h 73% 0 mm 373.00 W/m2 FEW
09:44 -4.9 °C -7.9 °C 34384.8 hPa South 6 km/h 0.3 km/h 72% 0 mm 464.00 W/m2 FEW
09:48 -4.8 °C -7.8 °C 34384.8 hPa Calm     72% 0 mm 454.00 W/m2 FEW
09:54 -4.6 °C -7.7 °C 34384.8 hPa Calm     70% 0 mm 480.00 W/m2 FEW
09:59 -4.4 °C -7.9 °C 34381.4 hPa SW 6 km/h 1.3 km/h 68% 0 mm 489.00 W/m2 FEW
10:04 -4.4 °C -7.9 °C 34378.1 hPa ESE 6 km/h 1.8 km/h 68% 0 mm 499.00 W/m2 FEW
10:09 -4.4 °C -7.7 °C 34378.1 hPa SSW 8 km/h 1.3 km/h 70% 0 mm 512.00 W/m2 FEW
10:14 -4.4 °C -7.8 °C 34378.1 hPa Calm     69% 0 mm 526.00 W/m2 FEW
10:19 -4.3 °C -8.1 °C 34378.1 hPa SSE 9 km/h 0.3 km/h 66% 0 mm 536.00 W/m2 FEW
10:24 -4.3 °C -8 °C 34381.4 hPa East 9 km/h 3.1 km/h 66% 0 mm 540.00 W/m2 FEW
10:29 -4.2 °C -7.9 °C 34381.4 hPa SSE 15 km/h 7.2 km/h 66% 0 mm 547.00 W/m2 FEW
10:34 -4.2 °C -8.1 °C 34381.4 hPa South 11.9 km/h 6.3 km/h 65% 0 mm 557.00 W/m2 FEW
10:39 -4.3 °C -8.2 °C 34381.4 hPa Calm     65% 0 mm 573.00 W/m2 FEW
10:43 -4.1 °C -7.9 °C 34384.8 hPa SE 9 km/h 4.3 km/h 66% 0 mm 584.00 W/m2 FEW
10:48 -4.1 °C -7.9 °C 34381.4 hPa SE 9 km/h 0.5 km/h 65% 0 mm 591.00 W/m2 FEW
10:53 -4 °C -7.9 °C 34381.4 hPa East 9 km/h   65% 0 mm 599.00 W/m2 FEW
10:58 -3.8 °C -7.6 °C 34384.8 hPa Calm     66% 0 mm 605.00 W/m2 FEW
11:03 -3.8 °C -7.8 °C 34388.2 hPa SSE 9 km/h 3.9 km/h 64% 0 mm 617.00 W/m2 FEW
11:08 -3.8 °C -7.6 °C 34384.8 hPa North 9 km/h 1.3 km/h 66% 0 mm 624.00 W/m2 FEW
11:13 -3.6 °C -7.6 °C 34384.8 hPa NNE 11.9 km/h 5.5 km/h 64% 0 mm 624.00 W/m2 FEW
11:19 -3.5 °C -7.6 °C 34388.2 hPa ENE 3.1 km/h 0.8 km/h 64% 0 mm 640.00 W/m2 FEW
11:23 -3.6 °C -7.7 °C 34384.8 hPa East 11.9 km/h 1.8 km/h 64% 0 mm 650.00 W/m2 FEW
11:28 -3.7 °C -7.7 °C 34384.8 hPa South 3.1 km/h   64% 0 mm 656.00 W/m2 FEW
11:33 -3.5 °C -7.7 °C 34384.8 hPa SW 6 km/h 1.6 km/h 63% 0 mm 661.00 W/m2 FEW
11:39 -3.3 °C -7.6 °C 34381.4 hPa Calm     62% 0 mm 682.00 W/m2 FEW
11:43 -3.2 °C -7.7 °C 34381.4 hPa East 9 km/h 1.3 km/h 61% 0 mm 684.00 W/m2 FEW
11:49 -3.2 °C -7.4 °C 34381.4 hPa SW 9 km/h 2.3 km/h 63% 0 mm 694.00 W/m2 FEW
11:54 -2.8 °C -7.6 °C 34381.4 hPa SW 6 km/h 0.5 km/h 60% 0 mm 703.00 W/m2 FEW
11:59 -2.4 °C -7.4 °C 34381.4 hPa Calm     58% 0 mm 712.00 W/m2 FEW
12:04 -2.1 °C -7.3 °C 34378.1 hPa ENE 6 km/h 0.5 km/h 57% 0 mm 721.00 W/m2 FEW
12:08 -2.1 °C -7.3 °C 34378.1 hPa NE 9 km/h   57% 0 mm 719.00 W/m2 FEW
12:14 -2 °C -7 °C 34378.1 hPa NNW 3.1 km/h   58% 0 mm 724.00 W/m2 FEW
12:19 -2 °C -7.3 °C 34378.1 hPa NNE 15 km/h 5.5 km/h 56% 0 mm 728.00 W/m2 FEW
12:23 -2.1 °C -7.4 °C 34378.1 hPa SE 9 km/h 4.3 km/h 56% 0 mm 733.00 W/m2 FEW
12:29 -2.2 °C -7.2 °C 34378.1 hPa North 6 km/h 2.6 km/h 58% 0 mm 738.00 W/m2 FEW
12:34 -2.2 °C -7.4 °C 34378.1 hPa SSW 9 km/h 1.6 km/h 57% 0 mm 742.00 W/m2 FEW
12:38 -2.2 °C -7.5 °C 34378.1 hPa SSW 9 km/h 2.1 km/h 56% 0 mm 758.00 W/m2 FEW
12:44 -2.1 °C -7.7 °C 34374.7 hPa SSW 9 km/h 1 km/h 54% 0 mm 756.00 W/m2 FEW
12:49 -2.1 °C -7.6 °C 34374.7 hPa South 9 km/h 3.1 km/h 55% 0 mm 756.00 W/m2 FEW
12:53 -1.9 °C -7.3 °C 34374.7 hPa SSW 9 km/h 1 km/h 56% 0 mm 759.00 W/m2 FEW
12:59 -1.7 °C -7.6 °C 34374.7 hPa SSW 9 km/h 1 km/h 53% 0 mm 770.00 W/m2 FEW
13:04 -1.8 °C -7.4 °C 34374.7 hPa ESE 5.5 km/h 0.3 km/h 54% 0 mm 758.00 W/m2 FEW
13:08 -1.7 °C -7.4 °C 34374.7 hPa SW 10.9 km/h 5.1 km/h 54% 0 mm 735.00 W/m2 FEW
13:13 -1.5 °C -7.3 °C 34374.7 hPa NNW 3.1 km/h   53% 0 mm 677.00 W/m2 FEW
13:18 -1.6 °C -7.4 °C 34374.7 hPa SSE 11.9 km/h 5.5 km/h 53% 0 mm 633.00 W/m2 FEW
13:23 -1.8 °C -7.5 °C 34374.7 hPa South 13.5 km/h 5.6 km/h 54% 0 mm 636.00 W/m2 FEW
13:28 -1.8 °C -7.4 °C 34374.7 hPa South 11.9 km/h 5 km/h 54% 0 mm 663.00 W/m2 FEW
13:33 -1.7 °C -7.4 °C 34374.7 hPa WSW 8.9 km/h 2.6 km/h 54% 0 mm 708.00 W/m2 FEW
13:38 -1.4 °C -7.3 °C 34374.7 hPa WSW 15 km/h 2.6 km/h 53% 0 mm 761.00 W/m2 FEW
13:43 -1.3 °C -7.4 °C 34374.7 hPa SW 6 km/h 2.9 km/h 52% 0 mm 772.00 W/m2 FEW
13:49 -1.1 °C -7.2 °C 34374.7 hPa North 3.1 km/h 0.8 km/h 52% 0 mm 775.00 W/m2 FEW
13:53 -0.9 °C -7.2 °C 34374.7 hPa West 6 km/h   51% 0 mm 773.00 W/m2 FEW
13:58 -0.8 °C -7.2 °C 34378.1 hPa SW 6 km/h 1.8 km/h 50% 0 mm 766.00 W/m2 FEW
14:04 -0.7 °C -7.2 °C 34374.7 hPa SW 3.1 km/h 0.3 km/h 50% 0 mm 775.00 W/m2 FEW
14:08 -0.7 °C -7.3 °C 34374.7 hPa WSW 6 km/h 1.6 km/h 49% 0 mm 795.00 W/m2 FEW
14:14 -0.9 °C -6.6 °C 34374.7 hPa NE 18.8 km/h 15.3 km/h 54% 0 mm 703.00 W/m2 FEW
14:18 -1.4 °C -6.8 °C 34374.7 hPa NE 15 km/h 5 km/h 56% 0 mm 668.00 W/m2 FEW
14:23 -1.8 °C -7 °C 34374.7 hPa North 15 km/h 8.2 km/h 57% 0 mm 749.00 W/m2 FEW
14:29 -1.8 °C -7.1 °C 34374.7 hPa ENE 6 km/h 0.8 km/h 56% 0 mm 754.00 W/m2 FEW
14:34 -1.8 °C -6.8 °C 34371.3 hPa ENE 24.3 km/h 14 km/h 58% 0 mm 737.00 W/m2 FEW
14:38 -1.8 °C -7.1 °C 34371.3 hPa NNE 15 km/h 8 km/h 57% 0 mm 710.00 W/m2 FEW
14:44 -1.8 °C -6.8 °C 34371.3 hPa East 18.8 km/h 8.9 km/h 58% 0 mm 740.00 W/m2 FEW
14:49 -1.8 °C -6.9 °C 34371.3 hPa North 6 km/h 0.3 km/h 58% 0 mm 756.00 W/m2 FEW
14:53 -1.7 °C -6.9 °C 34367.9 hPa ENE 9 km/h 5.1 km/h 57% 0 mm 719.00 W/m2 FEW
14:59 -1.6 °C -6.8 °C 34367.9 hPa Calm     57% 0 mm 733.00 W/m2 FEW
15:03 -1.6 °C -6.9 °C 34364.5 hPa NNW 9 km/h 1.3 km/h 56% 0 mm 726.00 W/m2 FEW
15:09 -1.3 °C -6.8 °C 34367.9 hPa NNE 20.9 km/h 8.5 km/h 55% 0 mm 738.00 W/m2 FEW
15:14 -1.5 °C -6.8 °C 34367.9 hPa NE 15 km/h 8.5 km/h 56% 0 mm 712.00 W/m2 FEW
15:18 -1.7 °C -6.8 °C 34367.9 hPa ENE 15 km/h 5.6 km/h 58% 0 mm 707.00 W/m2 FEW
15:24 -1.8 °C -6.9 °C 34364.5 hPa East 11.9 km/h 0.3 km/h 58% 0 mm 721.00 W/m2 FEW
15:28 -1.9 °C -6.8 °C 34367.9 hPa ENE 6 km/h 2.6 km/h 59% 0 mm 684.00 W/m2 FEW
15:33 -1.9 °C -6.9 °C 34367.9 hPa NNW 6 km/h 2.3 km/h 58% 0 mm 703.00 W/m2 FEW
15:38 -1.8 °C -6.7 °C 34364.5 hPa East 11.9 km/h 4.2 km/h 59% 0 mm 714.00 W/m2 FEW
15:43 -1.9 °C -6.8 °C 34364.5 hPa East 15 km/h 6.9 km/h 59% 0 mm 691.00 W/m2 FEW
15:48 -2 °C -6.7 °C 34364.5 hPa ENE 11.9 km/h 7.6 km/h 60% 0 mm 684.00 W/m2 FEW
15:53 -2 °C -6.7 °C 34364.5 hPa ENE 13.5 km/h 9.7 km/h 60% 0 mm 664.00 W/m2 FEW
Juneau County Weather
Compliments of Weather Underground - 2.75 mb